Soldotna, AK

10:45 PM AKDT on August 23, 2016 (GMT -0800)
Soldotna

Weather History for PASX - January, 2013

Change the Weather History Date:

Wednesday, January 30, 2013

  Actual Average Record
Temperature  
Mean Temperature 22 °F -  
Max Temperature 28 °F 23 °F 48 °F (2007)
Min Temperature 15 °F 5 °F -28 °F (1971)
Degree Days  
Heating Degree Days 44    
Moisture  
Dew Point 21 °F    
Average Humidity 91    
Maximum Humidity 100    
Minimum Humidity 79    
Precipitation  
Precipitation 0.10 in - - ()
Sea Level Pressure  
Sea Level Pressure 29.70 in    
Wind  
Wind Speed 6 mph (ENE)    
Max Wind Speed 10 mph    
Max Gust Speed -    
Visibility 8 miles    
Events      
Averages and records for this station are not official NWS values.
T = Trace of Precipitation, MM = Missing Value Source: NWS Daily Summary

Daily Weather History Graph

Daily Weather History Graph

Search for Another Location

Airport or City:

Trip Planner

Search our weather history database for the weather conditions in past years. The results will help you decide how hot, cold, wet, or windy it might be!

Date:

Astronomy

Jan. 30, 2013 Rise Set
Actual Time 9:24 AM AKST 5:11 PM AKST
Civil Twilight 8:35 AM AKST 6:00 PM AKST
Nautical Twilight 7:43 AM AKST 6:52 PM AKST
Astronomical Twilight 6:54 AM AKST 7:41 PM AKST
Moon 10:46 PM AKST (1/30) 9:41 AM AKST (1/30)
Length of Visible Light 9h 25m
Length of Day
7h 47m
Waning Gibbous, 86% of the Moon is Illuminated
Jan 30
Waning Gibbous
Feb 3
Last Quarter
Feb 9
New
Feb 17
First Quarter
Feb 25
Full

Hourly Weather History & Observations

Time (AKST) Temp. Windchill Dew Point Humidity Pressure Visibility Wind Dir Wind Speed Gust Speed Precip Events Conditions
12:16 AM 15.8 °F 5.1 °F 10.4 °F 79% 29.83 in 10.0 mi ENE 8.1 mph - N/A   Overcast
12:36 AM 15.8 °F 6.1 °F 10.4 °F 79% 29.83 in 10.0 mi ENE 6.9 mph - N/A   Overcast
12:56 AM 15.8 °F 6.1 °F 10.4 °F 79% 29.83 in 10.0 mi ENE 6.9 mph - N/A   Overcast
1:16 AM 15.8 °F 5.1 °F 12.2 °F 86% 29.82 in 10.0 mi NE 8.1 mph - N/A   Overcast
1:36 AM 15.8 °F 5.1 °F 10.4 °F 79% 29.82 in 10.0 mi ENE 8.1 mph - N/A   Overcast
1:56 AM 15.8 °F 6.1 °F 12.2 °F 86% 29.82 in 10.0 mi ENE 6.9 mph - N/A   Overcast
2:16 AM 15.8 °F 3.4 °F 12.2 °F 86% 29.82 in 10.0 mi NE 10.4 mph - N/A   Overcast
2:36 AM 15.8 °F 4.2 °F 12.2 °F 86% 29.82 in 10.0 mi ENE 9.2 mph - N/A   Overcast
2:56 AM 15.8 °F 7.2 °F 12.2 °F 86% 29.82 in 10.0 mi ENE 5.8 mph - N/A   Overcast
3:36 AM 17.6 °F 8.2 °F 12.2 °F 79% 29.80 in 10.0 mi ENE 6.9 mph - N/A   Overcast
3:56 AM 17.6 °F 9.3 °F 14.0 °F 86% 29.80 in 3.0 mi NE 5.8 mph - N/A   Scattered Clouds
4:16 AM 17.6 °F 7.3 °F 14.0 °F 86% 29.79 in 2.5 mi ENE 8.1 mph - N/A   Clear
4:36 AM 17.6 °F 9.3 °F 14.0 °F 86% 29.79 in 1.0 mi NE 5.8 mph - N/A   Clear
4:56 AM 17.6 °F 8.2 °F 15.8 °F 93% 29.79 in 0.8 mi NE 6.9 mph - 0.01 in   Unknown
5:16 AM 17.6 °F 8.2 °F 15.8 °F 93% 29.78 in 1.0 mi ENE 6.9 mph - N/A   Clear
5:36 AM 17.6 °F 9.3 °F 15.8 °F 93% 29.78 in 1.5 mi NE 5.8 mph - 0.01 in   Clear
5:56 AM 17.6 °F 9.3 °F 15.8 °F 93% 29.77 in 1.2 mi NE 5.8 mph - 0.01 in   Clear
6:16 AM 17.6 °F 8.2 °F 15.8 °F 93% 29.76 in 2.0 mi NE 6.9 mph - 0.01 in   Clear
6:36 AM 19.4 °F 14.3 °F 15.8 °F 86% 29.75 in 5.0 mi NE 3.5 mph - 0.01 in   Scattered Clouds
6:56 AM 19.4 °F 10.4 °F 15.8 °F 86% 29.75 in 10.0 mi NE 6.9 mph - 0.01 in   Overcast
7:16 AM 19.4 °F 8.6 °F 17.6 °F 93% 29.74 in 10.0 mi ENE 9.2 mph - N/A   Overcast
7:36 AM 19.4 °F 10.4 °F 17.6 °F 93% 29.74 in 10.0 mi NE 6.9 mph - N/A   Overcast
7:56 AM 19.4 °F 10.4 °F 17.6 °F 93% 29.73 in 10.0 mi ENE 6.9 mph - N/A   Overcast
8:16 AM 19.4 °F 9.5 °F 15.8 °F 86% 29.71 in 10.0 mi ENE 8.1 mph - N/A   Overcast
8:36 AM 19.4 °F 10.4 °F 17.6 °F 93% 29.71 in 10.0 mi NE 6.9 mph - N/A   Overcast
8:56 AM 19.4 °F 11.5 °F 17.6 °F 93% 29.71 in 10.0 mi NE 5.8 mph - N/A   Overcast
9:16 AM 19.4 °F 9.5 °F 17.6 °F 93% 29.71 in 10.0 mi NE 8.1 mph - N/A   Overcast
9:36 AM 19.4 °F 10.4 °F 17.6 °F 93% 29.69 in 10.0 mi ENE 6.9 mph - N/A   Overcast
9:56 AM 19.4 °F 8.6 °F 17.6 °F 93% 29.68 in 10.0 mi ENE 9.2 mph - N/A   Overcast
10:16 AM 21.2 °F 14.9 °F 17.6 °F 86% 29.68 in 10.0 mi ENE 4.6 mph - N/A   Mostly Cloudy
10:36 AM 21.2 °F 14.9 °F 17.6 °F 86% 29.68 in 10.0 mi ENE 4.6 mph - N/A   Mostly Cloudy
10:56 AM 21.2 °F 14.9 °F 19.4 °F 93% 29.68 in 10.0 mi ENE 4.6 mph - N/A   Partly Cloudy
11:16 AM 21.2 °F 16.4 °F 19.4 °F 93% 29.68 in 10.0 mi NE 3.5 mph - N/A   Scattered Clouds
11:36 AM 21.2 °F 12.6 °F 19.4 °F 93% 29.66 in 10.0 mi ENE 6.9 mph - N/A   Mostly Cloudy
11:56 AM 23.0 °F 15.8 °F 19.4 °F 86% 29.66 in 10.0 mi ENE 5.8 mph - N/A   Overcast
12:16 PM 23.0 °F 18.4 °F 19.4 °F 86% 29.66 in 10.0 mi NE 3.5 mph - N/A   Overcast
12:36 PM 23.0 °F - 19.4 °F 86% 29.65 in 10.0 mi Calm Calm - N/A   Overcast
12:56 PM 24.8 °F 20.5 °F 21.2 °F 86% 29.64 in 10.0 mi ESE 3.5 mph - N/A   Overcast
1:16 PM 24.8 °F 20.5 °F 21.2 °F 86% 29.64 in 10.0 mi NE 3.5 mph - N/A   Overcast
1:36 PM 24.8 °F 19.1 °F 21.2 °F 86% 29.64 in 10.0 mi NW 4.6 mph - N/A   Overcast
1:56 PM 26.6 °F 22.6 °F 23.0 °F 86% 29.64 in 10.0 mi NNW 3.5 mph - N/A   Overcast
2:16 PM 26.6 °F 20.0 °F 23.0 °F 86% 29.64 in 10.0 mi WNW 5.8 mph - N/A   Overcast
2:36 PM 26.6 °F - 24.8 °F 93% 29.63 in 10.0 mi Calm Calm - N/A   Overcast
2:56 PM 26.6 °F - 24.8 °F 93% 29.63 in 10.0 mi Calm Calm - N/A   Overcast
3:16 PM 26.6 °F - 24.8 °F 93% 29.63 in 10.0 mi Calm Calm - N/A   Overcast
3:36 PM 26.6 °F - 24.8 °F 93% 29.64 in 10.0 mi Calm Calm - N/A   Overcast
3:56 PM 28.4 °F - 24.8 °F 86% 29.64 in 10.0 mi Calm Calm - N/A   Overcast
4:16 PM 28.4 °F - 24.8 °F 86% 29.64 in 10.0 mi Calm Calm - N/A   Overcast
4:36 PM 28.4 °F - 26.6 °F 93% 29.64 in 10.0 mi Calm Calm - N/A   Overcast
4:56 PM 28.4 °F - 24.8 °F 86% 29.64 in 10.0 mi Calm Calm - N/A   Overcast
5:16 PM 28.4 °F - 24.8 °F 86% 29.64 in 10.0 mi Calm Calm - N/A   Overcast
5:36 PM 28.4 °F 24.6 °F 26.6 °F 93% 29.65 in 2.0 mi NNW 3.5 mph - N/A   Scattered Clouds
5:56 PM 28.4 °F - 26.6 °F 93% 29.65 in 1.2 mi Calm Calm - 0.01 in   Clear
6:16 PM 28.4 °F - 26.6 °F 93% 29.65 in 1.8 mi Calm Calm - 0.01 in   Unknown
6:36 PM 28.4 °F 24.6 °F 26.6 °F 93% 29.65 in 1.5 mi NNE 3.5 mph - 0.03 in   Unknown
6:56 PM 28.4 °F - 26.6 °F 93% 29.65 in 1.8 mi Calm Calm - 0.04 in   Clear
7:16 PM 28.4 °F - 26.6 °F 93% 29.65 in 1.5 mi Calm Calm - 0.01 in   Clear
7:36 PM 28.4 °F 24.6 °F 26.6 °F 93% 29.66 in 2.5 mi East 3.5 mph - 0.01 in   Partly Cloudy
7:56 PM 28.4 °F 24.6 °F 26.6 °F 93% 29.65 in 3.0 mi East 3.5 mph - 0.02 in   Partly Cloudy
8:16 PM 28.4 °F 24.6 °F 26.6 °F 93% 29.66 in 7.0 mi East 3.5 mph - N/A   Partly Cloudy
8:36 PM 28.4 °F 23.3 °F 28.4 °F 100% 29.66 in 7.0 mi East 4.6 mph - N/A   Partly Cloudy
8:56 PM 28.4 °F 23.3 °F 28.4 °F 100% 29.66 in 10.0 mi ESE 4.6 mph - N/A   Partly Cloudy
9:16 PM 28.4 °F 22.2 °F 28.4 °F 100% 29.66 in 10.0 mi East 5.8 mph - N/A   Mostly Cloudy
9:36 PM 28.4 °F 22.2 °F 28.4 °F 100% 29.66 in 10.0 mi East 5.8 mph - N/A   Overcast
9:56 PM 28.4 °F 23.3 °F 28.4 °F 100% 29.66 in 10.0 mi East 4.6 mph - N/A   Overcast
10:16 PM 28.4 °F 24.6 °F 28.4 °F 100% 29.66 in 10.0 mi East 3.5 mph - N/A   Overcast
10:36 PM 28.4 °F 24.6 °F 28.4 °F 100% 29.66 in 10.0 mi East 3.5 mph - N/A   Overcast
10:56 PM 28.4 °F 24.6 °F 28.4 °F 100% 29.66 in 10.0 mi ESE 3.5 mph - N/A   Overcast
11:16 PM 28.4 °F - 28.4 °F 100% 29.67 in 10.0 mi Calm Calm - N/A   Overcast
11:36 PM 28.4 °F - 28.4 °F 100% 29.67 in 10.0 mi Calm Calm - N/A   Overcast
11:56 PM 28.4 °F - 28.4 °F 100% 29.68 in 10.0 mi Calm Calm - N/A   Mostly Cloudy